User: anonymous   Login
Location: Ballingbuur
(53.0000°N, 5.7667°E)
Time: 11:22:10
(UTC+00:00)
Language:

Cosmos 2327 Rocket - Orbit

View from above orbital plane
View from above orbital plane
View from above satellite
View from above satellite

Ground track
Ground track

The orbit data is extracted from the following two-line orbital elements,

1 23774U 96004B   21063.51619123  .00000128  00000-0  11424-3 0  9998
2 23774  82.9751  79.2068 0044507 150.9087 209.4564 13.76543967262145
Epoch (UTC): 04 March 2021 12:23:18
Eccentricity: 0.0044507
inclination: 82.9751°
perigee height: 943 km
apogee height: 1009 km
right ascension of ascending node: 79.2068°
argument of perigee: 150.9087°
revolutions per day: 13.76543967
mean anomaly at epoch: 209.4564°
orbit number at epoch: 26214

The dashed part of the orbit path shows where the satellite is in the earth's shadow,  

DLR